Location: ?????????
(55.6553°N, 38.9075°E)
Time: 19:36:22
(UTC+00:00)

CZ-4B R/B - Pass Details

Date: 18 October 2019
Orbit: 497 x 647 km, 97.7° (Epoch: 20 November)

Event Time Altitude Azimuth Distance (km) Brightness Sun altitude
Rises 02:15:44 0° 15° (NNE) 2,675 7.6 -15.4°
Reaches altitude 10° 02:17:48 10° 16° (NNE) 1,801 6.7 -15.1°
Maximum altitude 02:21:42 82° 105° (ESE) 564 3.9 -14.6°
Drops below altitude 10° 02:25:45 10° 193° (SSW) 1,872 6.4 -14.0°
Sets 02:27:56 0° 195° (SSW) 2,792 7.2 -13.7°
